Vancouver, WA
on Saturday, January 12, 2013

Saturday
Previous Day Next Day
Daily Summary
 ActualAverageRecord
Temperature
Mean Temperature °F 41°F  
Max Temperature 33°F 47°F 58°F (1912)
Min Temperature 22°F 35°F -8°F (1909)
Degree Days
Heating Degree Days 37    
Month to date heating degree days 338  
Since 1 July heating degree days 1886  
Cooling Degree Days 0    
Month to date cooling degree days 0  
Year to date cooling degree days 0  
Moisture
Dew Point 25°F   
Average Humidity 85    
Maximum Humidity 92    
Minimum Humidity 78    
Precipitation
Precipitation 0.00 in 0.18 in 1.60 in (1980)
Month to date precipitation 0.93 2.38  
Year to date precipitation 0.93 2.38  
Snow
Snow 0.00 in in in ()
Month to date snowfall 0.0  
Snow Depth 0.00 in   
Wind
Wind Speed 1 mph   
Max Wind Speed 8 mph   
Max Gust Speed 12 mph   
Visibility 5 miles   
Events     

Key: T is trace of precipitation, MM is missing value
Source: NWS Daily Summary
Time(PST)TemperatureDew PointHumidity Pressure Visibility Wind DirectionWind SpeedGust SpeedPrecipitationEvents Conditions
12:53 AM 28.9°F 27.0°F 92% 30.33 in 6.0 miles Calm Calm - N/A   Overcast
1:30 AM 28.4°F 24.8°F 86% 30.33 in 5.0 miles Calm Calm - N/A   Mostly Cloudy
1:53 AM 27.0°F 25.0°F 92% 30.33 in 5.0 miles Calm Calm - N/A   Scattered Clouds
2:42 AM 24.8°F 21.2°F 86% 30.34 in 5.0 miles Calm Calm - N/A   Mostly Cloudy
2:53 AM 26.1°F 23.0°F 88% 30.34 in 5.0 miles Calm Calm - N/A   Overcast
3:53 AM 28.9°F 26.1°F 89% 30.33 in 6.0 miles Calm Calm - N/A   Overcast
4:53 AM 30.0°F 28.0°F 92% 30.33 in 8.0 miles Calm Calm - N/A   Overcast
5:53 AM 30.0°F 28.0°F 92% 30.34 in 5.0 miles Calm Calm - N/A   Overcast
6:53 AM 30.0°F 28.0°F 92% 30.35 in 5.0 miles West 3.5 mph - N/A   Overcast
7:53 AM 30.0°F 28.0°F 92% 30.36 in 5.0 miles Calm Calm - N/A   Overcast
8:53 AM 30.0°F 28.0°F 92% 30.37 in 3.0 miles Calm Calm - N/A   Overcast
9:53 AM 30.9°F 28.0°F 89% 30.38 in 5.0 miles Calm Calm - N/A   Overcast
10:53 AM 32.0°F 28.0°F 85% 30.39 in 5.0 miles Calm Calm - N/A   Overcast
11:53 AM 32.0°F 27.0°F 82% 30.38 in 6.0 miles Calm Calm - N/A   Haze
12:53 PM 32.0°F 27.0°F 82% 30.37 in 6.0 miles Calm Calm - N/A   Haze
1:53 PM 32.0°F 28.0°F 85% 30.37 in 7.0 miles WNW 4.6 mph - N/A   Overcast
2:53 PM 32.0°F 27.0°F 82% 30.39 in 8.0 miles WNW 5.8 mph - N/A   Overcast
3:53 PM 32.0°F 27.0°F 82% 30.38 in 8.0 miles West 5.8 mph - N/A   Scattered Clouds
4:16 PM 30.2°F 26.6°F 86% 30.38 in 8.0 miles WNW 3.5 mph - N/A   Mostly Cloudy
4:53 PM 30.9°F 27.0°F 85% 30.38 in 7.0 miles Calm Calm - N/A   Mostly Cloudy
5:01 PM 30.2°F 26.6°F 86% 30.38 in 6.0 miles Calm Calm - N/A   Scattered Clouds
5:53 PM 28.0°F 25.0°F 88% 30.39 in 5.0 miles Calm Calm - N/A   Clear
6:53 PM 25.0°F 23.0°F 92% 30.38 in 4.0 miles Calm Calm - N/A   Clear
7:40 PM 24.8°F 21.2°F 86% 30.39 in 2.0 miles Calm Calm - N/A   Clear
7:53 PM 24.1°F 21.9°F 91% 30.40 in 4.0 miles Calm Calm - N/A   Clear
8:53 PM 24.1°F 21.0°F 88% 30.40 in 4.0 miles Calm Calm - N/A   Clear
8:57 PM 21.2°F 19.4°F 93% 30.39 in 1.8 miles Calm Calm - N/A   Clear
9:12 PM 23.0°F 19.4°F 86% 30.40 in 3.0 miles Calm Calm - N/A   Clear
9:24 PM 21.2°F 19.4°F 93% 30.40 in 2.5 miles Calm Calm - N/A   Clear
9:34 PM 21.2°F 19.4°F 93% 30.40 in 4.0 miles Calm Calm - N/A   Partly Cloudy
9:45 PM 24.8°F 21.2°F 86% 30.40 in 4.0 miles Calm Calm - N/A   Mostly Cloudy
9:53 PM 25.0°F 21.9°F 88% 30.41 in 3.0 miles Calm Calm - N/A   Mostly Cloudy
10:28 PM 26.6°F 24.8°F 93% 30.41 in 4.0 miles Calm Calm - N/A   Overcast
10:53 PM 28.9°F 27.0°F 92% 30.42 in 4.0 miles Calm Calm - N/A   Overcast
11:53 PM 30.0°F 28.0°F 92% 30.43 in 5.0 miles Calm Calm - N/A   Overcast
Moon Phase
Jan. 12 Jan. 18 Jan. 26 Feb. 03 Feb. 10
Sunrise:07:48 AM (PST) Moon Rise:08:05 AM (PST)1/12
Sunset:04:49 PM (PST) Moon Set:06:32 PM (PST)1/12

Copyright © 2014 The Weather Underground, Inc.